This is the latest recevied weather packets stored in our database for station/object WX1NWA. If no packets are shown the sender has not sent any weather packets the latest 10 day(s).
| Time | Temp. | Humidity | Pressure | Rain* | Wind** | Luminosity | Snow |
|---|---|---|---|---|---|---|---|
| 1777693175 | 11.11° C | 52% | 1021 hPa | 0 mm | - | 0 W/m² | - |
| 1777692872 | 11.67° C | 52% | 1021.2 hPa | 0 mm | - | 0 W/m² | - |
| 1777692568 | 11.67° C | 50% | 1021.1 hPa | 0 mm | - | 0 W/m² | - |
| 1777692265 | 11.11° C | 51% | 1021 hPa | 0 mm | - | 0 W/m² | - |
| 1777691962 | 11.11° C | 52% | 1020.9 hPa | 0 mm | - | 0 W/m² | - |
| 1777691661 | 11.11° C | 52% | 1021.2 hPa | 0 mm | - | 0 W/m² | - |
| 1777691358 | 11.67° C | 52% | 1021 hPa | 0 mm | - | 0 W/m² | - |
| 1777691056 | 11.67° C | 51% | 1021 hPa | 0 mm | - | 0 W/m² | - |
| 1777690754 | 11.11° C | 52% | 1021.3 hPa | 0 mm | - | 0 W/m² | - |
| 1777690450 | 11.11° C | 53% | 1020.9 hPa | 0 mm | - | 0 W/m² | - |
| 1777690148 | 10.56° C | 56% | 1020.7 hPa | 0 mm | - | 0 W/m² | - |
| 1777689846 | 11.11° C | 55% | 1021.1 hPa | 0 mm | - | 0 W/m² | - |
| 1777689544 | 11.11° C | 55% | 1021 hPa | 0 mm | - | 0 W/m² | - |
| 1777689241 | 11.11° C | 54% | 1020.8 hPa | 0 mm | - | 0 W/m² | - |
| 1777688939 | 11.11° C | 55% | 1020.8 hPa | 0 mm | - | 0 W/m² | - |
| 1777688635 | 11.11° C | 56% | 1020.7 hPa | 0 mm | - | 0 W/m² | - |
| 1777688332 | 11.67° C | 56% | 1020.7 hPa | 0 mm | - | 0 W/m² | - |
| 1777688029 | 11.11° C | 55% | 1020.9 hPa | 0 mm | - | 0 W/m² | - |
| 1777687727 | 11.11° C | 56% | 1020.8 hPa | 0 mm | - | 0 W/m² | - |
| 1777687424 | 11.67° C | 55% | 1020.4 hPa | 0 mm | - | 0 W/m² | - |
| 1777687121 | 11.67° C | 55% | 1020.6 hPa | 0 mm | - | 0 W/m² | - |
| 1777686818 | 11.67° C | 55% | 1020.6 hPa | 0 mm | - | 0 W/m² | - |
| 1777686515 | 12.22° C | 52% | 1020.4 hPa | 0 mm | - | 0 W/m² | - |
| 1777686212 | 11.67° C | 50% | 1020.6 hPa | 0 mm | - | 0 W/m² | - |
| 1777685908 | 11.67° C | 54% | 1020.6 hPa | 0 mm | - | 0 W/m² | - |
* Rain latest hour (hover to see other rain measurements)
** Current wind speed in m/s (hover to see current wind gust speed)